sat.trackr.live / text

‹ back to catalog

STARLINK-30408

NORAD 57824 · 2023-138S

PAYLOAD ACTIVE UNKNOWN

§ Identity

Operator
Country
US
Launch date
2023-09-09
Launch site
AFETR
Launch vehicle
Mass (kg)
RCS (m²)

Purposes: comms

External: N2YO · Heavens-Above · Gunter

§ Orbital elements

Epoch: 2026-09-20T13:24:42.517152Z

Period
94.27 min
Inclination
43.0012°
Eccentricity
0.0001100
Mean motion
15.27588053 rev/d
Perigee alt
482.3 km
Apogee alt
483.8 km
Semi-major
6,861.2 km
B*
3.4541e-5
RAAN
213.4379°
Arg perigee
258.4931°
Mean anomaly
101.5798°
Rev number
16,853

§ Raw data

STARLINK-304081 57824U 23138S   26263.55882543  .00000689  00000+0  34541-4 0  99952 57824  43.0012 213.4379 0001100 258.4931 101.5798 15.27588053168539

JSON: /api/v1/satellites/57824 · /tle

For live sub-satellite position, see the globe view (requires WebGL).

§ Visibility from observer

Set your observer location to see the next 7 days of passes ≥ 10°. The values pass through the URL so the page stays shareable.

No JS? Fill the form by hand. The geolocation button needs JavaScript.